#timestamp,LO_Frequency,Hit,StdDev 
1550253615.1,286047005.4,N
1550253635.9,286047004.8,N
1550253655.7,286047003.2,N
1550253675.6,286047007.6,N
1550253695.4,286047007.1,N
1550253715.2,286047014.9,Y
1550253735.1,286047011.6,P
1550253755.8,286047015.4,N
1550253775.7,286047012.9,N
1550253795.5,286047011.1,N
1550253815.4,286047008.1,N
1550253835.2,286047006.7,N
1550253855.0,286047005.0,N
1550253855.9,286047005.0,N
1550253875.8,286047007.3,N
1550253895.6,286047010.1,N
1550253915.5,286047011.1,N
1550253935.3,286047012.1,Y
1550253955.1,286047007.3,P
1550253975.9,286047006.2,P
1550253995.7,286047009.2,P
1550254015.6,286047008.9,Y
1550254035.4,286047002.3,P
1550254055.2,286047000.5,N
1550254075.1,286047000.9,N
1550254076.0,286047000.9,N
1550254095.8,286047007.3,N
1550254115.7,286047007.7,N
1550254135.5,286047006.2,N
1550254155.3,286047008.8,N
1550254175.2,286047006.7,N
1550254195.9,286047009.5,N
1550254215.7,286047012.8,Y
1550254235.6,286047009.2,P
1550254255.4,286047003.3,N
1550254275.3,286047010.8,P
1550254295.1,286047007.8,N
1550254296.0,286047007.8,N
1550254315.8,286047008.5,Y
1550254335.7,286047002.7,P
1550254355.5,286047002.6,N
1550254375.4,286047004.2,N
1550254395.2,286047003.1,N
1550254415.0,286047003.1,N
1550254415.9,286047003.1,N
1550254435.8,286047007.2,Y
1550254455.6,286046999.7,P
1550254475.5,286047000.3,N
1550254495.3,286047000.9,N
1550254515.1,286047000.2,N
1550254535.9,286047000.6,N
1550254555.7,286047002.7,N
1550254575.6,286047003.2,N
1550254595.4,286047003.4,N
1550254615.2,286047005.0,Y
1550254635.1,286047004.3,P
1550254636.0,286047004.3,P
1550254655.8,286047006.0,P
1550254675.7,286047002.9,N
1550254695.5,286047004.6,Y
1550254715.3,286047002.0,P
1550254735.2,286046999.7,N
1550254755.0,286047001.0,N
1550254755.9,286047001.0,N
1550254775.8,286047002.3,N
1550254795.6,286047002.1,N
1550254815.4,286047004.5,Y
1550254835.3,286047006.0,P
1550254855.1,286047003.9,N
1550254875.9,286046999.8,N
1550254895.7,286047001.5,N
1550254915.5,286047005.3,N
1550254935.4,286047007.4,Y
1550254955.2,286047000.6,P
1550254975.1,286047000.1,N
1550254976.0,286047000.1,N
1550254995.8,286047003.1,N
1550255015.6,286047006.0,Y
1550255035.5,286047003.7,P
1550255055.3,286047008.6,P
1550255075.2,286047009.0,N
1550255095.9,286047006.1,N
1550255115.7,286047006.6,N
1550255135.6,286047008.0,N
1550255155.4,286047009.8,Y
1550255175.2,286047003.1,P
1550255195.1,286047006.4,P
1550255196.0,286047006.4,P
1550255215.8,286047010.7,Y
1550255235.7,286047002.9,P
1550255255.5,286047002.6,N
1550255275.3,286047003.1,N
1550255295.2,286047007.6,Y
1550255315.0,286047000.7,P
1550255315.9,286047000.7,N
1550255335.8,286047000.6,N
1550255355.6,286046999.3,N
1550255375.4,286047001.1,N
1550255395.3,286047002.6,N
1550255415.1,286047001.4,N
1550255435.9,286046999.8,N
1550255455.7,286046999.7,N
1550255475.5,286047000.5,N
1550255495.4,286047003.8,Y
1550255515.2,286047003.7,P
1550255535.1,286047004.7,P
1550255536.0,286047004.7,N
1550255555.8,286047006.4,Y
1550255575.6,286047001.0,P
1550255595.5,286046999.9,N
1550255615.3,286047003.4,N
1550255635.1,286047003.9,N
1550255655.9,286047004.0,N
1550255675.7,286047004.3,N
1550255695.6,286047007.1,Y
1550255715.4,286047004.3,P
1550255735.2,286047003.5,P
1550255755.1,286047006.8,P
1550255756.0,286047006.8,Y
1550255775.8,286047003.1,P
1550255795.7,286047004.7,P
1550255815.5,286047007.2,P
1550255835.3,286047006.9,Y
1550255855.2,286047005.9,P
1550255875.0,286047005.7,P
1550255875.9,286047005.7,P
1550255895.8,286047006.0,Y
1550255915.6,286047002.6,P
1550255935.4,286047003.5,N
1550255955.3,286047011.9,P
1550255975.1,286047003.9,N
1550255995.9,286047001.0,N
1550256015.7,286046998.6,N
1550256035.5,286046998.9,N
1550256055.4,286047000.0,N
1550256075.2,286047001.3,N
1550256095.1,286047000.1,N
1550256096.0,286047000.1,N
1550256115.8,286047001.6,N
1550256135.6,286047004.3,N
1550256155.5,286047002.0,N
1550256175.3,286047005.6,N
1550256195.1,286047008.4,N
1550256215.9,286047008.3,N
1550256235.7,286047007.8,N
1550256255.6,286047010.4,N
1550256275.4,286047008.8,N
1550256295.2,286047011.8,Y
1550256315.1,286047009.2,P
1550256316.0,286047009.2,P
1550256335.8,286047008.5,P
1550256355.7,286047012.2,Y
1550256375.5,286047003.8,P
1550256395.3,286047007.5,P
1550256415.2,286047007.7,P
1550256435.0,286047006.5,Y
1550256435.9,286047006.5,P
1550256455.8,286046999.6,P
1550256475.6,286046999.6,N
1550256495.4,286046999.3,N
1550256515.3,286046998.2,N
1550256535.1,286047002.5,N
1550256555.8,286047001.5,N
1550256575.7,286047001.7,N
1550256595.5,286047006.7,N
1550256615.4,286047006.1,N
1550256635.2,286047006.9,N
1550256655.0,286047007.9,N
1550256655.9,286047007.9,N
1550256675.8,286047010.0,N
1550256695.6,286047006.3,N
1550256715.5,286047007.5,N
1550256735.3,286047006.9,N
1550256755.1,286047006.5,N
1550256775.9,286047006.4,N
1550256795.7,286047008.2,N
1550256815.5,286047008.1,N
1550256835.4,286047010.2,N
1550256855.2,286047010.6,Y
1550256875.1,286047003.7,P
1550256876.0,286047003.7,P
1550256895.8,286047007.6,P
1550256915.6,286047006.7,Y
1550256935.5,286047001.3,P
1550256955.3,286047003.3,N
1550256975.2,286047003.1,N
1550256995.9,286047003.3,N
1550257015.7,286047001.8,N
1550257035.6,286047002.6,N
1550257055.4,286047003.7,Y
1550257075.3,286047003.9,P
1550257095.1,286047005.8,P
1550257096.0,286047005.8,P
1550257115.8,286047003.9,Y
1550257135.7,286047000.3,P
1550257155.5,286047000.9,N
1550257175.3,286047000.7,N
1550257195.2,286047000.7,N
